• In Netherlands
  • List of Countries
  • For 7 days
  • Water Temperature
  • Satellite Maps
  • Weather Map
  • Weather Widgets
  • user-avatar
    Login

    Hourly Weather San Miguel de Tucumán

    Today, 29 April, Saturday

    Time Temperature Precipitation Wind Pressure Humidity
    00:00 +15°C° 0 mm 2 mps 723 mmHg 67%
    01:00 +14°C° 0 mm 2 mps 722 mmHg 67%
    02:00 +14°C° 0 mm 2 mps 722 mmHg 67%
    03:00 +14°C° 0 mm 2 mps 722 mmHg 68%
    04:00 +14°C° 0 mm 2 mps 722 mmHg 69%
    05:00 +13°C° 0 mm 2 mps 722 mmHg 70%
    06:00 +15°C° 0 mm 2 mps 722 mmHg 66%
    07:00 +17°C° 0 mm 2 mps 722 mmHg 62%
    08:00 +18°C° 0 mm 2 mps 723 mmHg 58%
    09:00 +20°C° 0 mm 2 mps 723 mmHg 50%
    10:00 +24°C° 0 mm 2 mps 723 mmHg 43%
    11:00 +26°C° 0 mm 3 mps 723 mmHg 36%
    12:00 +27°C° 0 mm 3 mps 723 mmHg 34%
    13:00 +28°C° 0 mm 4 mps 722 mmHg 32%
    14:00 +29°C° 0 mm 4 mps 722 mmHg 31%
    15:00 +28°C° 0 mm 4 mps 722 mmHg 35%
    16:00 +27°C° 0 mm 4 mps 722 mmHg 38%
    17:00 +26°C° 0 mm 4 mps 722 mmHg 42%
    18:00 +23°C° 0 mm 4 mps 722 mmHg 49%
    19:00 +20°C° 0 mm 3 mps 723 mmHg 56%
    20:00 +18°C° 0 mm 3 mps 723 mmHg 63%
    21:00 +17°C° 0 mm 3 mps 723 mmHg 65%
    22:00 +17°C° 0 mm 3 mps 723 mmHg 66%
    23:00 +16°C° 0 mm 2 mps 724 mmHg 67%

    Tomorrow, 30 April, Sunday

    Time Temperature Precipitation Wind Pressure Humidity
    00:00 +16°C° 0 mm 2 mps 723 mmHg 68%
    01:00 +15°C° 0 mm 2 mps 723 mmHg 70%
    02:00 +15°C° 0 mm 2 mps 723 mmHg 71%
    03:00 +14°C° 0 mm 2 mps 723 mmHg 72%
    04:00 +14°C° 0 mm 1 mps 722 mmHg 73%
    05:00 +14°C° 0 mm 1 mps 722 mmHg 74%
    06:00 +15°C° 0 mm 1 mps 723 mmHg 70%
    07:00 +18°C° 0 mm 1 mps 723 mmHg 65%
    08:00 +20°C° 0 mm 1 mps 724 mmHg 61%
    09:00 +21°C° 0 mm 2 mps 724 mmHg 53%
    10:00 +24°C° 0 mm 2 mps 724 mmHg 46%
    11:00 +26°C° 0 mm 3 mps 724 mmHg 39%
    12:00 +27°C° 0 mm 3 mps 723 mmHg 37%
    13:00 +28°C° 0 mm 3 mps 723 mmHg 36%
    14:00 +29°C° 0 mm 4 mps 722 mmHg 35%
    15:00 +28°C° 0 mm 4 mps 722 mmHg 38%
    16:00 +27°C° 0 mm 4 mps 721 mmHg 42%
    17:00 +26°C° 0 mm 3 mps 721 mmHg 45%
    18:00 +22°C° 0 mm 3 mps 722 mmHg 53%
    19:00 +20°C° 0 mm 3 mps 722 mmHg 60%
    20:00 +17°C° 0 mm 2 mps 722 mmHg 68%
    21:00 +17°C° 0 mm 2 mps 722 mmHg 68%
    22:00 +17°C° 0 mm 2 mps 722 mmHg 69%
    23:00 +16°C° 0 mm 2 mps 723 mmHg 70%

    Day after tomorrow, 1 May, Monday

    Time Temperature Precipitation Wind Pressure Humidity
    00:00 +16°C° 0 mm 2 mps 722 mmHg 72%
    01:00 +15°C° 0 mm 2 mps 722 mmHg 73%
    02:00 +15°C° 0 mm 2 mps 721 mmHg 74%
    03:00 +15°C° 0 mm 2 mps 721 mmHg 75%
    04:00 +14°C° 0 mm 1 mps 721 mmHg 75%
    05:00 +14°C° 0 mm 1 mps 721 mmHg 76%
    06:00 +16°C° 0 mm 1 mps 721 mmHg 72%
    07:00 +18°C° 0 mm 1 mps 722 mmHg 69%
    08:00 +20°C° 0 mm 1 mps 722 mmHg 66%
    09:00 +21°C° 0 mm 2 mps 722 mmHg 57%
    10:00 +24°C° 0 mm 2 mps 722 mmHg 49%
    11:00 +27°C° 0 mm 3 mps 722 mmHg 41%
    12:00 +28°C° 0 mm 3 mps 721 mmHg 39%
    13:00 +28°C° 0 mm 3 mps 721 mmHg 38%
    14:00 +29°C° 0 mm 4 mps 720 mmHg 36%
    15:00 +29°C° 0 mm 3 mps 720 mmHg 40%
    16:00 +28°C° 0 mm 3 mps 719 mmHg 45%
    17:00 +27°C° 0 mm 3 mps 719 mmHg 49%
    18:00 +24°C° 0 mm 3 mps 719 mmHg 58%
    19:00 +21°C° 0 mm 3 mps 720 mmHg 67%
    20:00 +19°C° 0 mm 3 mps 720 mmHg 75%
    21:00 +18°C° 0 mm 3 mps 720 mmHg 77%
    22:00 +18°C° 0 mm 3 mps 720 mmHg 79%
    23:00 +17°C° 0 mm 3 mps 720 mmHg 80%

    2 May, Tuesday

    Time Temperature Precipitation Wind Pressure Humidity
    00:00 +17°C° 0 mm 3 mps 719 mmHg 81%
    01:00 +17°C° 0 mm 3 mps 719 mmHg 82%
    02:00 +17°C° 0 mm 2 mps 719 mmHg 83%
    03:00 +17°C° 0 mm 2 mps 718 mmHg 83%
    04:00 +16°C° 0 mm 2 mps 718 mmHg 83%
    05:00 +16°C° 0 mm 2 mps 718 mmHg 82%
    06:00 +17°C° 0 mm 2 mps 718 mmHg 79%
    07:00 +19°C° 0 mm 2 mps 719 mmHg 75%
    08:00 +20°C° 0 mm 2 mps 719 mmHg 71%
    09:00 +22°C° 0 mm 3 mps 719 mmHg 63%
    10:00 +25°C° 0 mm 3 mps 719 mmHg 54%
    11:00 +28°C° 0 mm 3 mps 719 mmHg 46%
    12:00 +28°C° 0 mm 3 mps 718 mmHg 45%
    13:00 +29°C° 0 mm 3 mps 717 mmHg 44%
    14:00 +30°C° 0 mm 4 mps 716 mmHg 43%
    15:00 +29°C° 0 mm 3 mps 716 mmHg 47%
    16:00 +28°C° 0 mm 3 mps 717 mmHg 52%
    17:00 +28°C° 0 mm 3 mps 717 mmHg 57%
    18:00 +25°C° 0 mm 3 mps 717 mmHg 66%
    19:00 +23°C° 0 mm 2 mps 718 mmHg 75%
    20:00 +20°C° 0 mm 2 mps 718 mmHg 84%
    21:00 +20°C° 0 mm 2 mps 718 mmHg 84%
    22:00 +19°C° 0 mm 2 mps 719 mmHg 85%
    23:00 +19°C° 0 mm 2 mps 719 mmHg 86%

    3 May, Wednesday

    Time Temperature Precipitation Wind Pressure Humidity
    00:00 +20°C° 0 mm 1 mps 719 mmHg 87%
    01:00 +20°C° 0 mm 1 mps 719 mmHg 88%
    02:00 +20°C° 0 mm 1 mps 719 mmHg 88%
    03:00 +20°C° 0.1 mm 1 mps 720 mmHg 86%
    04:00 +20°C° 0.1 mm 1 mps 720 mmHg 85%
    05:00 +19°C° 0.1 mm 2 mps 720 mmHg 83%
    06:00 +20°C° 0.1 mm 2 mps 721 mmHg 81%
    07:00 +20°C° 0.1 mm 2 mps 722 mmHg 78%
    08:00 +21°C° 0.1 mm 2 mps 722 mmHg 76%
    09:00 +22°C° 0.5 mm 3 mps 722 mmHg 75%
    10:00 +24°C° 0.5 mm 3 mps 723 mmHg 74%
    11:00 +25°C° 0.5 mm 4 mps 723 mmHg 74%
    12:00 +26°C° 0.1 mm 4 mps 722 mmHg 68%
    13:00 +27°C° 0.1 mm 4 mps 722 mmHg 62%
    14:00 +28°C° 0.1 mm 4 mps 721 mmHg 56%
    15:00 +27°C° 0 mm 3 mps 721 mmHg 59%
    16:00 +27°C° 0 mm 3 mps 721 mmHg 63%
    17:00 +26°C° 0 mm 2 mps 721 mmHg 66%
    18:00 +24°C° 0 mm 2 mps 721 mmHg 73%
    19:00 +23°C° 0 mm 1 mps 721 mmHg 80%
    20:00 +21°C° 0 mm 1 mps 722 mmHg 86%
    21:00 +21°C° 0 mm 1 mps 722 mmHg 87%
    22:00 +21°C° 0 mm 1 mps 721 mmHg 88%
    23:00 +21°C° 0 mm 1 mps 721 mmHg 89%

    4 May, Thursday

    Time Temperature Precipitation Wind Pressure Humidity
    00:00 +20°C° 0 mm 1 mps 721 mmHg 90%
    01:00 +19°C° 0 mm 1 mps 720 mmHg 91%
    02:00 +19°C° 0 mm 1 mps 720 mmHg 92%
    03:00 +18°C° 0 mm 1 mps 720 mmHg 91%
    04:00 +18°C° 0 mm 1 mps 720 mmHg 91%
    05:00 +18°C° 0 mm 1 mps 720 mmHg 91%
    06:00 +19°C° 0 mm 1 mps 720 mmHg 88%
    07:00 +21°C° 0 mm 1 mps 721 mmHg 85%
    08:00 +22°C° 0 mm 1 mps 721 mmHg 82%
    09:00 +24°C° 0 mm 1 mps 721 mmHg 74%
    10:00 +26°C° 0 mm 2 mps 721 mmHg 65%
    11:00 +27°C° 0 mm 2 mps 721 mmHg 57%
    12:00 +28°C° 0 mm 3 mps 720 mmHg 54%
    13:00 +29°C° 0 mm 3 mps 719 mmHg 51%
    14:00 +30°C° 0 mm 3 mps 718 mmHg 48%
    15:00 +29°C° 0 mm 3 mps 718 mmHg 52%
    16:00 +28°C° 0 mm 3 mps 718 mmHg 56%
    17:00 +27°C° 0 mm 3 mps 718 mmHg 60%
    18:00 +26°C° 0 mm 2 mps 718 mmHg 67%
    19:00 +24°C° 0 mm 2 mps 718 mmHg 74%
    20:00 +21°C° 0 mm 2 mps 719 mmHg 80%
    21:00 +21°C° 0 mm 2 mps 719 mmHg 82%
    22:00 +21°C° 0 mm 2 mps 719 mmHg 83%
    23:00 +20°C° 0 mm 2 mps 719 mmHg 84%
    Show more